| time (UTC) | temp F | wind direction | speed MPH | gust MPH | rain 1hr in | rain 24hr in | rain mn in | humidity % | barometer mb |
| 20260506021552 | 53 | 80 | 3.0 | 5.0 | 0.00 | 0.07 | 0.07 | 84 | 1009.2 |
| 20260506020041 | 54 | 43 | 1.0 | 4.0 | 0.00 | 0.07 | 0.07 | 84 | 1009.0 |
| 20260506014550 | 56 | 51 | 2.0 | 5.0 | 0.00 | 0.07 | 0.07 | 84 | 1008.6 |
| 20260506013101 | 57 | 36 | 1.0 | 3.0 | 0.00 | 0.07 | 0.07 | 88 | 1008.2 |
| 20260506011544 | 58 | 55 | 1.0 | 5.0 | 0.00 | 0.07 | 0.07 | 86 | 1007.9 |
| 20260506010046 | 58 | 57 | 1.0 | 4.0 | 0.00 | 0.07 | 0.07 | 86 | 1007.6 |
| 20260506004541 | 59 | 30 | 1.0 | 4.0 | 0.00 | 0.07 | 0.07 | 87 | 1007.4 |
| 20260506003042 | 59 | 9 | 1.0 | 3.0 | 0.00 | 0.07 | 0.07 | 88 | 1007.3 |
| 20260506001544 | 59 | 16 | 1.0 | 3.0 | 0.00 | 0.07 | 0.07 | 88 | 1007.1 |
| 20260506000050 | 60 | 168 | 1.0 | 2.0 | 0.00 | 0.07 | 0.07 | 88 | 1006.9 |
| 20260505234545 | 60 | 26 | 0.0 | 2.0 | 0.00 | 0.07 | 0.07 | 86 | 1006.6 |
| 20260505233041 | 61 | 178 | 1.0 | 3.0 | 0.01 | 0.07 | 0.07 | 86 | 1006.7 |
| 20260505231543 | 61 | 238 | 1.0 | 2.0 | 0.01 | 0.07 | 0.07 | 86 | 1006.6 |
| 20260505230054 | 61 | 239 | 1.0 | 2.0 | 0.01 | 0.07 | 0.07 | 86 | 1006.5 |
| 20260505224546 | 61 | 178 | 1.0 | 4.0 | 0.01 | 0.07 | 0.07 | 84 | 1006.5 |
| 20260505223056 | 62 | 0 | 0.0 | 3.0 | 0.00 | 0.06 | 0.06 | 83 | 1006.6 |
| 20260505221544 | 63 | 255 | 1.0 | 3.0 | 0.00 | 0.06 | 0.06 | 80 | 1006.4 |
| 20260505220052 | 63 | 51 | 0.0 | 4.0 | 0.00 | 0.06 | 0.06 | 81 | 1005.8 |
| 20260505214542 | 64 | 296 | 1.0 | 3.0 | 0.00 | 0.06 | 0.06 | 80 | 1005.9 |
| 20260505213056 | 63 | 221 | 0.0 | 3.0 | 0.00 | 0.06 | 0.06 | 83 | 1005.7 |
| 20260505211542 | 62 | 227 | 1.0 | 3.0 | 0.00 | 0.06 | 0.06 | 86 | 1005.6 |
| 20260505210043 | 61 | 265 | 1.0 | 3.0 | 0.00 | 0.06 | 0.06 | 87 | 1005.4 |
| 20260505204542 | 59 | 273 | 1.0 | 3.0 | 0.03 | 0.06 | 0.06 | 90 | 1005.6 |
| 20260505203047 | 58 | 270 | 1.0 | 5.0 | 0.04 | 0.06 | 0.06 | 89 | 1006.0 |
| 20260505201542 | 59 | 319 | 2.0 | 5.0 | 0.04 | 0.06 | 0.06 | 90 | 1006.1 |
| 20260505200046 | 58 | 298 | 3.0 | 11.0 | 0.04 | 0.06 | 0.06 | 89 | 1006.7 |
| 20260505194547 | 60 | 304 | 4.0 | 16.0 | 0.01 | 0.03 | 0.03 | 83 | 1007.1 |
| 20260505193041 | 71 | 288 | 3.0 | 7.0 | 0.00 | 0.02 | 0.02 | 51 | 1005.6 |
| 20260505191546 | 72 | 279 | 3.0 | 8.0 | 0.00 | 0.02 | 0.02 | 44 | 1004.4 |
| 20260505190047 | 73 | 240 | 3.0 | 9.0 | 0.00 | 0.02 | 0.02 | 47 | 1004.4 |
| 20260505184548 | 72 | 196 | 4.0 | 10.0 | 0.00 | 0.02 | 0.02 | 51 | 1004.4 |
| 20260505183057 | 73 | 223 | 5.0 | 10.0 | 0.01 | 0.02 | 0.02 | 50 | 1004.6 |
| 20260505181546 | 72 | 284 | 3.0 | 10.0 | 0.02 | 0.02 | 0.02 | 55 | 1005.0 |
| 20260505180049 | 70 | 219 | 3.0 | 8.0 | 0.02 | 0.02 | 0.02 | 57 | 1005.1 |
| 20260505174550 | 66 | 41 | 1.0 | 6.0 | 0.02 | 0.02 | 0.02 | 71 | 1005.4 |
| 20260505173050 | 69 | 309 | 3.0 | 9.0 | 0.01 | 0.01 | 0.01 | 65 | 1005.8 |
| 20260505171548 | 72 | 219 | 3.0 | 9.0 | 0.00 | 0.00 | 0.00 | 46 | 1005.5 |
| 20260505170047 | 73 | 234 | 3.0 | 7.0 | 0.00 | 0.00 | 0.00 | 46 | 1005.5 |
| 20260505164558 | 74 | 212 | 4.0 | 10.0 | 0.00 | 0.00 | 0.00 | 45 | 1005.2 |
| 20260505163053 | 74 | 229 | 3.0 | 8.0 | 0.00 | 0.00 | 0.00 | 45 | 1005.3 |
| 20260505161546 | 73 | 202 | 5.0 | 9.0 | 0.00 | 0.00 | 0.00 | 46 | 1005.6 |
| 20260505153059 | 74 | 153 | 4.0 | 9.0 | 0.00 | 0.00 | 0.00 | 46 | 1005.8 |
| 20260505151554 | 73 | 236 | 3.0 | 9.0 | 0.00 | 0.00 | 0.00 | 46 | 1005.8 |
| 20260505124548 | 62 | 228 | 2.0 | 7.0 | 0.00 | 0.00 | 0.00 | 65 | 1006.5 |
| 20260505123046 | 61 | 252 | 3.0 | 8.0 | 0.00 | 0.00 | 0.00 | 65 | 1006.8 |
| 20260505121543 | 61 | 242 | 3.0 | 6.0 | 0.00 | 0.00 | 0.00 | 67 | 1006.8 |
| 20260505120043 | 60 | 227 | 2.0 | 5.0 | 0.00 | 0.00 | 0.00 | 67 | 1006.6 |
| 20260505114548 | 60 | 219 | 2.0 | 6.0 | 0.00 | 0.00 | 0.00 | 66 | 1006.5 |
| 20260505113046 | 60 | 221 | 2.0 | 6.0 | 0.00 | 0.00 | 0.00 | 65 | 1006.5 |
| 20260505111551 | 59 | 221 | 2.0 | 5.0 | 0.00 | 0.00 | 0.00 | 64 | 1006.7 |
| 20260505101542 | 58 | 221 | 1.0 | 3.0 | 0.00 | 0.00 | 0.00 | 65 | 1006.5 |
| 20260505100051 | 58 | 225 | 2.0 | 4.0 | 0.00 | 0.00 | 0.00 | 65 | 1006.4 |
| 20260505094542 | 58 | 235 | 2.0 | 5.0 | 0.00 | 0.00 | 0.00 | 64 | 1006.0 |
| 20260505093048 | 58 | 243 | 2.0 | 5.0 | 0.00 | 0.00 | 0.00 | 63 | 1005.8 |
| 20260505091554 | 58 | 221 | 2.0 | 5.0 | 0.00 | 0.00 | 0.00 | 63 | 1005.8 |
| 20260505090053 | 58 | 226 | 2.0 | 5.0 | 0.00 | 0.00 | 0.00 | 62 | 1005.5 |
| 20260505084549 | 59 | 235 | 2.0 | 5.0 | 0.00 | 0.00 | 0.00 | 61 | 1005.5 |
| 20260505083048 | 59 | 219 | 2.0 | 6.0 | 0.00 | 0.00 | 0.00 | 61 | 1005.6 |
| 20260505081558 | 59 | 235 | 2.0 | 5.0 | 0.00 | 0.00 | 0.00 | 60 | 1005.4 |
| 20260505080049 | 59 | 234 | 2.0 | 5.0 | 0.00 | 0.00 | 0.00 | 59 | 1005.6 |
| 20260505074604 | 60 | 215 | 2.0 | 5.0 | 0.00 | 0.00 | 0.00 | 59 | 1005.8 |
| 20260505073047 | 60 | 209 | 2.0 | 6.0 | 0.00 | 0.00 | 0.00 | 58 | 1005.6 |
| 20260505071542 | 60 | 221 | 2.0 | 5.0 | 0.00 | 0.00 | 0.00 | 58 | 1005.8 |
| 20260505070040 | 60 | 236 | 2.0 | 6.0 | 0.00 | 0.00 | 0.00 | 57 | 1005.7 |
| 20260505064547 | 59 | 219 | 3.0 | 7.0 | 0.00 | 0.00 | 0.00 | 58 | 1005.8 |
| 20260505063044 | 59 | 221 | 2.0 | 7.0 | 0.00 | 0.00 | 0.00 | 57 | 1005.8 |
| 20260505061603 | 59 | 221 | 2.0 | 5.0 | 0.00 | 0.00 | 0.00 | 57 | 1005.6 |
| 20260505060052 | 59 | 178 | 2.0 | 5.0 | 0.00 | 0.00 | 0.00 | 56 | 1005.8 |
| 20260505054556 | 60 | 219 | 2.0 | 5.0 | 0.00 | 0.00 | 0.00 | 56 | 1005.8 |
| 20260505053047 | 60 | 217 | 3.0 | 5.0 | 0.00 | 0.00 | 0.00 | 55 | 1006.0 |
| 20260505051545 | 60 | 225 | 2.0 | 6.0 | 0.00 | 0.00 | 0.00 | 54 | 1005.9 |
| 20260505041546 | 61 | 221 | 2.0 | 5.0 | 0.00 | 0.00 | 0.00 | 53 | 1005.9 |
| 20260505040049 | 61 | 209 | 2.0 | 6.0 | 0.00 | 0.00 | 0.00 | 53 | 1005.8 |
| 20260505034545 | 61 | 225 | 2.0 | 5.0 | 0.00 | 0.00 | 0.00 | 53 | 1005.8 |
| 20260505033049 | 61 | 231 | 2.0 | 5.0 | 0.00 | 0.00 | 0.00 | 52 | 1005.9 |
| 20260505031540 | 61 | 210 | 2.0 | 5.0 | 0.00 | 0.00 | 0.00 | 51 | 1005.8 |
| 20260505030049 | 62 | 215 | 3.0 | 5.0 | 0.00 | 0.00 | 0.00 | 50 | 1005.8 |
| 20260505024604 | 62 | 236 | 2.0 | 6.0 | 0.00 | 0.00 | 0.00 | 49 | 1005.8 |
| 20260505023049 | 62 | 219 | 2.0 | 5.0 | 0.00 | 0.00 | 0.00 | 49 | 1005.9 |